Weather History for Maxwell AFB, AL

Change the Weather History Date:

Saturday, June 29, 2013

  Actual Average Record
Temperature  
Mean Temperature 80 °F -  
Max Temperature 90 °F 88 °F 100 °F (1998)
Min Temperature 71 °F 71 °F 68 °F (2004)
Cooling Degree Days 14    
Growing Degree Days 30 (Base 50)    
Moisture  
Dew Point 70 °F    
Average Humidity 86    
Maximum Humidity 94    
Minimum Humidity 55    
Precipitation  
Precipitation 0.05 in - - ()
Sea Level Pressure  
Sea Level Pressure 29.75 in    
Wind  
Wind Speed 4 mph (SW)    
Max Wind Speed 16 mph    
Max Gust Speed 26 mph    
Visibility 9 miles    
Events Rain , Thunderstorm    
Averages and records for this station are not official NWS values.
T = Trace of Precipitation, MM = Missing Value Source: NWS Daily Summary

Daily Weather History Graph

Daily Weather History Graph

Search for Another Location

Airport:

Trip Planner

Search our weather history database for the weather conditions in past years. The results will help you decide how hot, cold, wet, or windy it might be!

Date:

Astronomy

Jun. 29, 2013 Rise Set
Actual Time 5:41 AM CDT 7:56 PM CDT
Civil Twilight 5:13 AM CDT 8:24 PM CDT
Nautical Twilight 4:38 AM CDT 8:59 PM CDT
Astronomical Twilight 4:00 AM CDT 9:37 PM CDT
Moon No Moon Rise 12:26 PM CDT (6/29)
Length of Visible Light 15h 11m
Length of Day
14h 15m
Waning Gibbous, 55% of the Moon is Illuminated
Jun 29
Waning Gibbous
Jun 29
Last Quarter
Jul 8
New
Jul 15
First Quarter
Jul 22
Full

Hourly Weather History & Observations

Time (CDT) Temp. Heat Index Dew Point Humidity Pressure Visibility Wind Dir Wind Speed Gust Speed Precip Events Conditions
12:02 AM 73.4 °F - 69.8 °F 88% 29.77 in 10.0 mi South 5.8 mph - N/A   Light Drizzle
12:12 AM 73.4 °F - 69.8 °F 88% 29.77 in 10.0 mi South 4.6 mph - N/A   Mostly Cloudy
12:38 AM 73.4 °F - 69.8 °F 88% 29.76 in 9.0 mi SSW 4.6 mph - N/A Rain Light Rain
12:52 AM 71.6 °F - 69.8 °F 94% 29.76 in 10.0 mi WSW 4.6 mph - N/A   Mostly Cloudy
12:58 AM 72.0 °F - 68.9 °F 90% 29.77 in 10.0 mi WSW 4.6 mph - 0.01 in   Mostly Cloudy
1:58 AM 71.8 °F - 69.4 °F 92% 29.77 in 10.0 mi SSW 4.6 mph - N/A   Mostly Cloudy
2:58 AM 71.6 °F - 69.3 °F 92% 29.76 in 10.0 mi SSW 3.5 mph - N/A   Scattered Clouds
3:28 AM 71.6 °F - 69.8 °F 94% 29.75 in 10.0 mi Variable 3.5 mph - N/A   Mostly Cloudy
3:38 AM 71.6 °F - 69.8 °F 94% 29.74 in 10.0 mi South 3.5 mph - N/A   Mostly Cloudy
3:58 AM 71.6 °F - 69.4 °F 93% 29.75 in 10.0 mi SW 3.5 mph - N/A   Partly Cloudy
4:58 AM 71.4 °F - 69.3 °F 93% 29.76 in 10.0 mi SW 3.5 mph - N/A   Scattered Clouds
5:18 AM 71.6 °F - 69.8 °F 94% 29.76 in 10.0 mi West 1.2 mph - N/A   Mostly Cloudy
5:48 AM 71.6 °F - 69.8 °F 94% 29.75 in 10.0 mi SSW 3.5 mph - N/A   Overcast
5:58 AM 71.4 °F - 68.9 °F 92% 29.76 in 10.0 mi SSW 2.3 mph - N/A   Overcast
6:28 AM 71.6 °F - 69.8 °F 94% 29.75 in 10.0 mi South 3.5 mph - N/A   Overcast
6:58 AM 72.1 °F - 69.4 °F 91% 29.76 in 10.0 mi South 5.8 mph - N/A   Overcast
7:53 AM 73.4 °F - 69.8 °F 88% 29.77 in 10.0 mi WSW 4.6 mph - N/A   Overcast
7:58 AM 73.4 °F - 70.2 °F 90% 29.78 in 10.0 mi WSW 4.6 mph - N/A   Overcast
8:13 AM 73.4 °F - 69.8 °F 88% 29.78 in 10.0 mi Variable 2.3 mph - N/A   Overcast
8:38 AM 73.4 °F - 69.8 °F 88% 29.77 in 8.0 mi West 6.9 mph - N/A   Overcast
8:58 AM 74.3 °F - 70.5 °F 88% 29.79 in 8.0 mi SW 3.5 mph - N/A   Overcast
9:13 AM 75.2 °F - 69.8 °F 83% 29.78 in 9.0 mi Variable 3.5 mph - N/A   Overcast
9:38 AM 75.2 °F - 69.8 °F 83% 29.78 in 10.0 mi WSW 3.5 mph - N/A   Overcast
9:58 AM 75.9 °F - 71.1 °F 85% 29.78 in 9.0 mi Variable 2.3 mph - N/A   Overcast
10:28 AM 77.0 °F - 71.6 °F 83% 29.77 in 10.0 mi Variable 3.5 mph - N/A   Overcast
10:58 AM 79.7 °F - 72.1 °F 78% 29.78 in 10.0 mi Variable 4.6 mph - N/A   Overcast
11:03 AM 80.6 °F 84.6 °F 71.6 °F 74% 29.77 in 10.0 mi WSW 4.6 mph - N/A   Overcast
11:58 AM 83.3 °F 89.0 °F 72.7 °F 70% 29.77 in 10.0 mi SW 3.5 mph - N/A   Mostly Cloudy
12:03 PM 84.2 °F 90.9 °F 73.4 °F 70% 29.76 in 10.0 mi South 4.6 mph - N/A   Mostly Cloudy
2:58 PM 88.7 °F 94.3 °F 70.5 °F 55% 29.70 in 10.0 mi SW 6.9 mph - N/A   Scattered Clouds
3:58 PM 83.5 °F 86.9 °F 68.9 °F 61% 29.72 in 10.0 mi NNW 16.1 mph 25.3 mph N/A   Mostly Cloudy
4:33 PM 77.0 °F - 68.0 °F 74% 29.72 in 10.0 mi WNW 15.0 mph 26.5 mph N/A Thunderstorm Thunderstorm
4:35 PM 77.0 °F - 68.0 °F 74% 29.72 in 10.0 mi West 9.2 mph 26.5 mph N/A Thunderstorm Thunderstorm
4:41 PM 75.2 °F - 68.0 °F 78% 29.72 in 9.0 mi WNW 12.7 mph 25.3 mph N/A Rain , Thunderstorm Light Thunderstorms and Rain
4:50 PM 73.4 °F - 69.8 °F 88% 29.72 in 4.0 mi West 6.9 mph 17.3 mph N/A Rain , Thunderstorm Rain
4:58 PM 73.6 °F - 69.3 °F 86% 29.71 in 5.0 mi South 6.9 mph - 0.03 in Rain Rain
5:09 PM 73.4 °F - 69.8 °F 88% 29.71 in 10.0 mi WNW 5.8 mph - N/A   Overcast
5:20 PM 73.4 °F - 69.8 °F 88% 29.71 in 10.0 mi Variable 2.3 mph - N/A   Light Drizzle
5:37 PM 73.4 °F - 69.8 °F 88% 29.70 in 10.0 mi South 9.2 mph - N/A   Overcast
5:58 PM 74.5 °F - 71.1 °F 89% 29.72 in 10.0 mi SW 5.8 mph - 0.01 in   Mostly Cloudy
6:58 PM 75.0 °F - 70.0 °F 84% 29.70 in 10.0 mi North 2.3 mph - N/A   Partly Cloudy
7:58 PM 74.5 °F - 70.5 °F 87% 29.73 in 10.0 mi South 3.5 mph - N/A   Mostly Cloudy
8:42 PM 75.2 °F - 69.8 °F 83% 29.72 in 8.0 mi Calm Calm - N/A Rain Light Rain
8:46 PM 75.2 °F - 71.6 °F 89% 29.72 in 4.0 mi Calm Calm - N/A   Mostly Cloudy
8:51 PM 75.2 °F - 69.8 °F 83% 29.72 in 3.0 mi Calm Calm - N/A Rain Light Rain
8:52 PM 75.2 °F - 69.8 °F 83% 29.72 in 3.0 mi Calm Calm - N/A   Mostly Cloudy
8:54 PM 75.2 °F - 69.8 °F 83% 29.72 in 3.0 mi Calm Calm - N/A   Light Drizzle
8:58 PM 74.5 °F - 70.3 °F 87% 29.73 in 5.0 mi Calm Calm - 0.00 in   Light Drizzle
9:05 PM 73.4 °F - 69.8 °F 88% 29.72 in 8.0 mi Calm Calm - N/A   Mostly Cloudy
9:07 PM 73.4 °F - 69.8 °F 88% 29.72 in 7.0 mi Calm Calm - N/A Rain Light Rain
9:30 PM 73.4 °F - 69.8 °F 88% 29.74 in 9.0 mi SW 4.6 mph - N/A   Mostly Cloudy
9:31 PM 73.4 °F - 69.8 °F 88% 29.74 in 9.0 mi SSW 4.6 mph - N/A   Light Drizzle
9:33 PM 73.4 °F - 71.6 °F 94% 29.74 in 9.0 mi South 4.6 mph - N/A   Mostly Cloudy
9:58 PM 73.9 °F - 70.7 °F 90% 29.74 in 8.0 mi Calm Calm - 0.00 in   Scattered Clouds
10:06 PM 73.4 °F - 69.8 °F 88% 29.74 in 10.0 mi SW 2.3 mph - N/A Rain Light Rain
10:08 PM 73.4 °F - 69.8 °F 88% 29.74 in 10.0 mi SW 2.3 mph - N/A   Scattered Clouds
10:58 PM 73.0 °F - 70.0 °F 90% 29.75 in 10.0 mi SE 3.5 mph - 0.00 in   Mostly Cloudy
11:58 PM 72.9 °F - 70.2 °F 91% 29.75 in 9.0 mi Calm Calm - N/A   Partly Cloudy